Location: Karcze
(52.0945°N, 22.4786°E)
Time: 01:42:14
(UTC+00:00)

A-11 Canister half - Pass Details

Date: 01 August 2021
Orbit: 1514 x 1685 km, 47.2° (Epoch: 16 September)

Event Time Altitude Azimuth Distance (km) Brightness Sun altitude
Rises 12:49:44 0° 166° (SSE) 4,758 11.8 46.9°
Reaches altitude 10° 12:56:41 10° 131° (SE) 3,831 11.1 46.1°
Maximum altitude 12:58:23 11° 121° (ESE) 3,800 11.0 45.9°
Drops below altitude 10° 13:00:06 10° 111° (ESE) 3,859 11.0 45.7°
Sets 13:07:12 0° 77° (ENE) 4,897 11.2 44.8°
